Observations
| Time | Sensor | AQI | SAQ | Temp °C | Hum % | Pres Pa | CO μg/m³ | H₂S μg/m³ | NO μg/m³ | NO₂ μg/m³ | O₃ μg/m³ | SO₂ μg/m³ | CO₂e PPM | VOC PPM | PM1 μg/m³ | PM2.5 μg/m³ | PM4 μg/m³ | PM10 μg/m³ | TPS µm |
|---|---|---|---|---|---|---|---|---|---|---|---|---|---|---|---|---|---|---|---|
| Tuesday 11 August 2026 | |||||||||||||||||||
| 05:58 | Trim Patrick St | 1 | 10.9 | 82 | 38,460 | 0.41 | 1.48 | 4.19 | 27.14 | 4.16 | 0 | 5.43 | 8.54 | 9.39 | |||||
| 05:57 | Trim Patrick St | 1 | 10.9 | 82 | 38,460 | 0.41 | 1.07 | 4.18 | 25.89 | 3.82 | 0 | 5.43 | 9.24 | 10.17 | |||||
| 05:56 | Trim Patrick St | 1 | 10.9 | 82 | 38,460 | 0.4 | 1.68 | 4.24 | 27.13 | 4.13 | 0 | 4.57 | 8.55 | 9.4 | |||||
| 05:55 | Trim Patrick St | 1 | 10.9 | 82 | 38,460 | 0.4 | 1.25 | 4.21 | 27.12 | 3.94 | 0 | 5.43 | 9.95 | 10.94 | |||||
| 05:54 | Trim Market St | 2 | 12.5 | 75 | 47,359 | 0.38 | 0 | 3.89 | 11.84 | 29.64 | 0 | 1.43 | 3.78 | 6.34 | |||||
| 05:53 | Trim Market St | 2 | 12.5 | 75 | 47,443 | 0.39 | 0 | 3.87 | 12.66 | 30.11 | 0 | 2.14 | 3.3 | 5.74 | |||||
| 05:52 | Trim Market St | 2 | 12.5 | 75 | 47,533 | 0.4 | 0 | 3.81 | 13.04 | 28.44 | 0 | 2.14 | 3.31 | 6.33 | |||||
| 05:51 | Trim Patrick St | 1 | 10.9 | 82 | 38,460 | 0.4 | 0.94 | 4.14 | 23.98 | 6.83 | 0 | 4.57 | 7.86 | 8.65 | |||||
| 05:51 | Trim Market St | 2 | 12.4 | 75 | 47,615 | 0.44 | 0 | 3.86 | 14.88 | 25.25 | 0 | 2.14 | 4.26 | 7.53 | |||||
| 05:50 | Trim Patrick St | 1 | 10.9 | 82 | 38,460 | 0.39 | 1.56 | 4.14 | 23.25 | 7.22 | 0 | 4.57 | 9.95 | 10.94 | |||||
| 05:50 | Trim Market St | 2 | 12.4 | 75 | 47,693 | 0.43 | 0 | 3.79 | 13.87 | 27.93 | 0 | 2.85 | 4.74 | 8.73 | |||||
| 05:49 | Trim Patrick St | 1 | 11 | 82 | 38,460 | 0.39 | 0.94 | 4.12 | 22.15 | 7.47 | 0 | 4.57 | 8.55 | 9.41 | |||||
| 05:49 | Trim Market St | 2 | 12.4 | 75 | 47,746 | 0.42 | 0 | 3.9 | 13.87 | 26.43 | 0 | 2.85 | 4.74 | 7.53 | |||||
| 05:48 | Trim Patrick St | 1 | 11 | 82 | 38,460 | 0.4 | 1.12 | 4.13 | 24.29 | 5.92 | 0 | 3.71 | 9.25 | 10.17 | |||||
| 05:48 | Trim Market St | 2 | 12.4 | 75 | 47,790 | 0.39 | 0 | 3.9 | 13.68 | 27.26 | 0 | 2.85 | 4.27 | 7.53 | |||||
| 05:47 | Trim Patrick St | 1 | 11 | 82 | 38,460 | 0.39 | 0.73 | 4.12 | 23.19 | 7.4 | 0 | 5.43 | 9.25 | 10.17 | |||||
| 05:47 | Trim Market St | 2 | 12.5 | 75 | 47,863 | 0.39 | 0 | 3.84 | 11.94 | 30.17 | 0 | 2.14 | 3.79 | 6.33 | |||||
| 05:46 | Trim Patrick St | 1 | 10.9 | 82 | 38,460 | 0.39 | 0.91 | 4.15 | 21.87 | 7.35 | 0 | 5.43 | 8.55 | 9.41 | |||||
| 05:46 | Trim Market St | 2 | 12.5 | 75 | 47,857 | 0.39 | 0 | 3.86 | 11.72 | 30.52 | 0 | 2.14 | 3.31 | 5.74 | |||||
| 05:45 | Trim Patrick St | 1 | 11 | 82 | 38,460 | 0.39 | 1.02 | 4.13 | 21.82 | 6.39 | 0 | 4.57 | 8.55 | 9.41 | |||||